H1 CPF 2 NER 2025 10 6 9 279 01 glonass129 H2 1106402 9129 37868 2025 10 6 0 0 0 2025 10 9 23 45 0 900 1 1 0 0 0 1 H9 10 0 60954 0.00000 0 -11594556.407 -216883.971 22747415.115 10 0 60954 900.00000 0 -12807439.984 -2685453.238 21918314.587 10 0 60954 1800.00000 0 -14137778.091 -4946316.906 20664523.685 10 0 60954 2700.00000 0 -15534943.869 -6953158.176 19010054.820 10 0 60954 3600.00000 0 -16941876.255 -8670513.345 16986714.377 10 0 60954 4500.00000 0 -18297451.188 -10075007.850 14633511.668 10 0 60954 5400.00000 0 -19539049.215 -11156089.853 11995924.915 10 0 60954 6300.00000 0 -20605212.722 -11916229.673 9125036.458 10 0 60954 7200.00000 0 -21438281.187 -12370575.419 6076552.405 10 0 60954 8100.00000 0 -21986892.726 -12546078.139 2909724.705 10 0 60954 9000.00000 0 -22208244.893 -12480122.441 -313803.717 10 0 60954 9900.00000 0 -22070017.067 -12218719.973 -3531207.891 10 0 60954 10800.00000 0 -21551870.627 -11814342.318 -6679719.229 10 0 60954 11700.00000 0 -20646460.777 -11323485.919 -9697867.775 10 0 60954 12600.00000 0 -19359914.700 -10804073.668 -12526702.027 10 0 60954 13500.00000 0 -17711753.721 -10312805.248 -15110960.459 10 0 60954 14400.00000 0 -15734261.153 -9902570.804 -17400169.783 10 0 60954 15300.00000 0 -13471321.687 -9620039.863 -19349646.618 10 0 60954 16200.00000 0 -10976780.946 -9503529.756 -20921381.555 10 0 60954 17100.00000 0 -8312394.611 -9581245.481 -22084787.355 10 0 60954 18000.00000 0 -5545454.042 -9869966.661 -22817296.220 10 0 60954 18900.00000 0 -2746188.927 -10374237.571 -23104794.541 10 0 60954 19800.00000 0 14943.349 -11086094.357 -22941887.231 10 0 60954 20700.00000 0 2669967.549 -11985340.190 -22331987.409 10 0 60954 21600.00000 0 5155986.242 -13040355.619 -21287230.969 10 0 60954 22500.00000 0 7417553.319 -14209408.480 -19828219.127 10 0 60954 23400.00000 0 9408727.336 -15442406.598 -17983595.518 10 0 60954 24300.00000 0 11094720.814 -16683017.959 -15789467.597 10 0 60954 25200.00000 0 12453079.038 -17871067.870 -13288685.051 10 0 60954 26100.00000 0 13474342.008 -18945111.277 -10529990.584 10 0 60954 27000.00000 0 14162165.109 -19845071.608 -7567060.664 10 0 60954 27900.00000 0 14532896.765 -20514835.191 -4457455.690 10 0 60954 28800.00000 0 14614633.940 -20904692.685 -1261500.554 10 0 60954 29700.00000 0 14445797.894 -20973525.852 1958882.504 10 0 60954 30600.00000 0 14073292.217 -20690649.037 5141366.272 10 0 60954 31500.00000 0 13550322.007 -20037229.413 8224413.553 10 0 60954 32400.00000 0 12933966.597 -19007227.700 11148452.535 10 0 60954 33300.00000 0 12282607.826 -17607820.995 13857011.042 10 0 60954 34200.00000 0 11653321.252 -15859290.616 16297789.196 10 0 60954 35100.00000 0 11099338.730 -13794379.660 18423651.451 10 0 60954 36000.00000 0 10667687.464 -11457146.417 20193520.611 10 0 60954 36900.00000 0 10397103.148 -8901360.119 21573158.194 10 0 60954 37800.00000 0 10316303.481 -6188503.782 22535817.534 10 0 60954 38700.00000 0 10442693.666 -3385464.684 23062758.101 10 0 60954 39600.00000 0 10781557.975 -562005.657 23143611.651 10 0 60954 40500.00000 0 11325771.851 2211880.760 22776593.151 10 0 60954 41400.00000 0 12056047.885 4868628.156 21968551.785 10 0 60954 42300.00000 0 12941707.317 7345654.162 20734859.815 10 0 60954 43200.00000 0 13941947.078 9587715.870 19099139.740 10 0 60954 44100.00000 0 15007551.804 11548965.890 17092832.892 10 0 60954 45000.00000 0 16082981.409 13194623.648 14754615.552 10 0 60954 45900.00000 0 17108748.534 14502191.850 12129671.582 10 0 60954 46800.00000 0 18023987.316 15462166.328 9268833.633 10 0 60954 47700.00000 0 18769105.819 16078208.254 6227607.973 10 0 60954 48600.00000 0 19288409.997 16366770.160 3065100.839 10 0 60954 49500.00000 0 19532587.209 16356190.316 -157133.211 10 0 60954 50400.00000 0 19460942.390 16085292.847 -3376298.139 10 0 60954 51300.00000 0 19043289.835 15601552.480 -6529593.982 10 0 60954 52200.00000 0 18261417.792 14958901.928 -9555459.474 10 0 60954 53100.00000 0 17110061.126 14215275.770 -12394793.517 10 0 60954 54000.00000 0 15597338.428 13429996.444 -14992129.591 10 0 60954 54900.00000 0 13744633.014 12661115.090 -17296738.108 10 0 60954 55800.00000 0 11585921.467 11962821.974 -19263633.249 10 0 60954 56700.00000 0 9166577.241 11383038.232 -20854463.186 10 0 60954 57600.00000 0 6541699.570 10961292.569 -22038265.265 10 0 60954 58500.00000 0 3774038.322 10726973.921 -22792070.903 10 0 60954 59400.00000 0 931602.603 10698034.541 -23101348.465 10 0 60954 60300.00000 0 -1914945.900 10880198.163 -22960276.009 10 0 60954 61200.00000 0 -4695004.953 11266705.950 -22371839.514 10 0 60954 62100.00000 0 -7340735.474 11838609.621 -21347755.937 10 0 60954 63000.00000 0 -9789644.043 12565597.746 -19908224.029 10 0 60954 63900.00000 0 -11986937.068 13407318.463 -18081509.304 10 0 60954 64800.00000 0 -13887549.693 14315140.984 -15903372.783 10 0 60954 65700.00000 0 -15457766.740 15234279.931 -13416356.063 10 0 60954 66600.00000 0 -16676370.456 16106191.605 -10668937.926 10 0 60954 67500.00000 0 -17535270.067 16871140.280 -7714579.992 10 0 60954 68400.00000 0 -18039589.930 17470825.995 -4610680.785 10 0 60954 69300.00000 0 -18207215.724 17850963.269 -1417459.098 10 0 60954 70200.00000 0 -18067820.615 17963702.741 1803211.437 10 0 60954 71100.00000 0 -17661414.688 17769794.795 4988994.131 10 0 60954 72000.00000 0 -17036480.368 17240405.351 8078284.723 10 0 60954 72900.00000 0 -16247773.212 16358508.787 11011388.313 10 0 60954 73800.00000 0 -15353880.745 15119800.570 13731656.158 10 0 60954 74700.00000 0 -14414641.436 13533092.074 16186561.825 10 0 60954 75600.00000 0 -13488531.131 11620171.253 18328697.579 10 0 60954 76500.00000 0 -12630125.131 9415134.493 20116673.514 10 0 60954 77400.00000 0 -11887740.689 6963216.380 21515903.730 10 0 60954 78300.00000 0 -11301357.125 4319164.295 22499265.850 10 0 60954 79200.00000 0 -10900899.368 1545222.983 23047622.237 10 0 60954 80100.00000 0 -10704956.028 -1291189.919 23150193.459 10 0 60954 81000.00000 0 -10719985.497 -4120023.905 22804776.806 10 0 60954 81900.00000 0 -10940043.922 -6871248.715 22017805.062 10 0 60954 82800.00000 0 -11347047.682 -9477512.972 20804243.191 10 0 60954 83700.00000 0 -11911561.201 -11876700.063 19187323.243 10 0 60954 84600.00000 0 -12594079.189 -14014276.406 17198120.486 10 0 60954 85500.00000 0 -13346751.753 -15845334.971 14874976.707 10 0 60955 0.00000 0 -14115481.838 -17336248.628 12262779.781 10 0 60955 900.00000 0 -14842308.698 -18465864.198 9412109.960 10 0 60955 1800.00000 0 -15467976.818 -19226184.078 6378271.366 10 0 60955 2700.00000 0 -15934583.318 -19622507.983 3220221.749 10 0 60955 3600.00000 0 -16188190.110 -19673025.343 -575.657 10 0 60955 4500.00000 0 -16181289.181 -19407875.175 -3221356.849 10 0 60955 5400.00000 0 -15875014.266 -18867712.255 -6379293.694 10 0 60955 6300.00000 0 -15241002.604 -18101840.066 -9412736.890 10 0 60955 7200.00000 0 -14262825.081 -17165990.039 -12262439.038 10 0 60955 8100.00000 0 -12936921.479 -16119842.253 -14872731.868 10 0 60955 9000.00000 0 -11272998.856 -15024394.180 -17192632.578 10 0 60955 9900.00000 0 -9293874.380 -13939290.750 -19176855.746 10 0 60955 10800.00000 0 -7034768.010 -12920230.657 -20786709.581 10 0 60955 11700.00000 0 -4542074.201 -12016560.316 -21990857.966 10 0 60955 12600.00000 0 -1871664.332 -11269158.444 -22765932.915 10 0 60955 13500.00000 0 913208.425 -10708701.278 -23096985.515 10 0 60955 14400.00000 0 3744313.314 -10354381.662 -22977767.080 10 0 60955 15300.00000 0 6551053.794 -10213135.328 -22410835.958 10 0 60955 16200.00000 0 9263177.198 -10279405.632 -21407489.119 10 0 60955 17100.00000 0 11813468.775 -10535454.858 -19987521.293 10 0 60955 18000.00000 0 14140317.877 -10952206.780 -18178817.889 10 0 60955 18900.00000 0 16190050.002 -11490582.697 -16016791.103 10 0 60955 19800.00000 0 17918928.831 -12103272.445 -13543671.686 10 0 60955 20700.00000 0 19294746.631 -12736863.791 -10807671.425 10 0 60955 21600.00000 0 20297939.129 -13334238.949 -7862033.763 10 0 60955 22500.00000 0 20922181.069 -13837136.203 -4763991.826 10 0 60955 23400.00000 0 21174440.497 -14188768.236 -1573654.713 10 0 60955 24300.00000 0 21074492.384 -14336386.950 1647156.113 10 0 60955 25200.00000 0 20653914.526 -14233687.332 4836097.883 10 0 60955 26100.00000 0 19954609.895 -13842950.122 7931502.393 10 0 60955 27000.00000 0 19026918.804 -13136834.235 10873554.389 10 0 60955 27900.00000 0 17927400.719 -12099744.716 13605430.860 10 0 60955 28800.00000 0 16716378.640 -10728719.627 16074380.639 10 0 60955 29700.00000 0 15455348.203 -9033799.088 18232725.133 10 0 60955 30600.00000 0 14204358.689 -7037860.791 20038762.606 10 0 60955 31500.00000 0 13019473.945 -4775927.954 21457560.187 10 0 60955 32400.00000 0 11950417.638 -2293976.977 22461619.837 10 0 60955 33300.00000 0 11038499.677 352707.878 23031406.512 10 0 60955 34200.00000 0 10314909.180 3101567.037 23155728.961 10 0 60955 35100.00000 0 9799444.594 5885104.049 22831965.872 10 0 60955 36000.00000 0 9499733.941 8633435.879 22066132.444 10 0 60955 36900.00000 0 9410978.411 11276952.033 20872784.930 10 0 60955 37800.00000 0 9516231.193 13748974.481 19274763.325 10 0 60955 38700.00000 0 9787201.560 15988309.605 17302775.065 10 0 60955 39600.00000 0 10185552.357 17941586.882 14994825.542 10 0 60955 40500.00000 0 10664638.287 19565287.027 12395504.136 10 0 60955 41400.00000 0 11171613.452 20827374.321 9555137.522 10 0 60955 42300.00000 0 11649820.405 21708463.582 6528825.015 10 0 60955 43200.00000 0 12041360.236 22202471.340 3375373.594 10 0 60955 44100.00000 0 12289734.619 22316722.094 156152.840 10 0 60955 45000.00000 0 12342446.771 22071503.674 -3066107.608 10 0 60955 45900.00000 0 12153449.184 21499089.238 -6228553.719 10 0 60955 46800.00000 0 11685331.920 20642266.584 -9269450.318 10 0 60955 47700.00000 0 10911155.922 19552436.964 -12129405.703 10 0 60955 48600.00000 0 9815850.820 18287364.443 -14752551.672 10 0 60955 49500.00000 0 8397115.415 16908672.243 -17087653.837 10 0 60955 50400.00000 0 6665780.548 15479193.569 -19089128.610 10 0 60955 51300.00000 0 4645617.371 14060290.679 -20717945.504 10 0 60955 52200.00000 0 2372598.101 12709257.148 -21942396.053 10 0 60955 53100.00000 0 -106360.011 11476914.376 -22738713.804 10 0 60955 54000.00000 0 -2735114.542 10405504.534 -23091533.297 10 0 60955 54900.00000 0 -5450408.921 9526968.935 -22994179.570 10 0 60955 55800.00000 0 -8184285.418 8861683.811 -22448783.460 10 0 60955 56700.00000 0 -10866698.429 8417705.424 -21466221.662 10 0 60955 57600.00000 0 -13428218.298 8190554.421 -20065884.156 10 0 60955 58500.00000 0 -15802712.614 8163546.174 -18275275.041 10 0 60955 59400.00000 0 -17929893.348 8308650.596 -16129456.073 10 0 60955 60300.00000 0 -19757624.444 8587842.599 -13670345.192 10 0 60955 61200.00000 0 -21243894.973 8954883.861 -10945884.972 10 0 60955 62100.00000 0 -22358377.418 9357458.715 -8009098.301 10 0 60955 63000.00000 0 -23083508.410 9739572.551 -4917050.453 10 0 60955 63900.00000 0 -23415049.326 10044110.594 -1729738.356 10 0 60955 64800.00000 0 -23362106.010 10215448.810 1491071.158 10 0 60955 65700.00000 0 -22946609.331 10202007.045 4683031.678 10 0 60955 66600.00000 0 -22202280.474 9958637.457 7784413.462 10 0 60955 67500.00000 0 -21173125.952 9448748.643 10735283.272 10 0 60955 68400.00000 0 -19911526.288 8646077.127 13478646.134 10 0 60955 69300.00000 0 -18475998.627 7536032.716 15961528.370 10 0 60955 70200.00000 0 -16928726.413 6116561.896 18135982.616 10 0 60955 71100.00000 0 -15332958.270 4398493.127 19959997.186 10 0 60955 72000.00000 0 -13750383.262 2405349.059 21398293.880 10 0 60955 72900.00000 0 -12238590.238 172632.179 22423000.334 10 0 60955 73800.00000 0 -10848715.435 -2253388.332 23014185.097 10 0 60955 74700.00000 0 -9623374.838 -4817340.570 23160245.740 10 0 60955 75600.00000 0 -8594966.270 -7456798.538 22858142.620 10 0 60955 76500.00000 0 -7784411.386 -10104633.436 22113473.246 10 0 60955 77400.00000 0 -7200390.048 -12691572.947 20940384.684 10 0 60955 78300.00000 0 -6839099.663 -15148864.888 19361324.021 10 0 60955 79200.00000 0 -6684550.702 -17410936.542 17406629.658 10 0 60955 80100.00000 0 -6709387.518 -19417940.300 15113969.048 10 0 60955 81000.00000 0 -6876201.676 -21118079.992 12527631.479 10 0 60955 81900.00000 0 -7139284.114 -22469620.425 9697687.477 10 0 60955 82800.00000 0 -7446743.510 -23442494.993 6679029.469 10 0 60955 83700.00000 0 -7742902.064 -24019442.361 3530311.200 10 0 60955 84600.00000 0 -7970867.326 -24196622.631 312806.014 10 0 60955 85500.00000 0 -8075170.323 -23983685.129 -2910793.487 10 0 60956 0.00000 0 -8004356.610 -23403283.435 -6077609.852 10 0 60956 900.00000 0 -7713418.077 -22490056.555 -9125825.425 10 0 60956 1800.00000 0 -7165959.866 -21289119.592 -11995906.774 10 0 60956 2700.00000 0 -6336007.595 -19854126.784 -14631788.608 10 0 60956 3600.00000 0 -5209375.601 -18244990.229 -16981987.708 10 0 60956 4500.00000 0 -3784535.840 -16525351.699 -19000624.899 10 0 60956 5400.00000 0 -2072948.771 -14759915.913 -20648333.290 10 0 60956 6300.00000 0 -98840.878 -13011759.382 -21893033.971 10 0 60956 7200.00000 0 2101562.486 -11339729.744 -22710563.462 10 0 60956 8100.00000 0 4481316.791 -9796046.099 -23085140.682 10 0 60956 9000.00000 0 6984496.507 -8424201.724 -23009664.785 10 0 60956 9900.00000 0 9548318.143 -7257257.047 -22485838.966 10 0 60956 10800.00000 0 12105558.483 -6316593.547 -21524119.022 10 0 60956 11700.00000 0 14587166.127 -5611179.147 -20143489.080 10 0 60956 12600.00000 0 16924956.653 -5137373.643 -18371070.380 10 0 60956 13500.00000 0 19054278.690 -4879279.556 -16241572.250 10 0 60956 14400.00000 0 20916539.976 -4809620.755 -13796597.390 10 0 60956 15300.00000 0 22461488.760 -4891108.954 -11083816.323 10 0 60956 16200.00000 0 23649156.714 -5078237.960 -8156028.160 10 0 60956 17100.00000 0 24451384.095 -5319427.897 -5070126.805 10 0 60956 18000.00000 0 24852865.577 -5559427.442 -1885993.303 10 0 60956 18900.00000 0 24851675.487 -5741871.859 1334663.921 10 0 60956 19800.00000 0 24459252.797 -5811888.672 4529498.501 10 0 60956 20700.00000 0 23699848.662 -5718641.433 7636722.613 10 0 60956 21600.00000 0 22609461.335 -5417705.111 10596288.147 10 0 60956 22500.00000 0 21234304.124 -4873174.090 13351030.843 10 0 60956 23400.00000 0 19628870.924 -4059415.107 15847756.698 10 0 60956 24300.00000 0 17853679.902 -2962392.325 18038251.259 10 0 60956 25200.00000 0 15972788.595 -1580509.344 19880194.094 10 0 60956 26100.00000 0 14051182.675 75067.292 21337962.400 10 0 60956 27000.00000 0 12152145.335 1980617.511 22383309.786 10 0 60956 27900.00000 0 10334714.925 4100602.943 22995908.276 10 0 60956 28800.00000 0 8651334.747 6388899.561 23163743.756 10 0 60956 29700.00000 0 7145791.232 8790479.222 22883357.364 10 0 60956 30600.00000 0 5851525.156 11243473.238 22159927.670 10 0 60956 31500.00000 0 4790385.706 13681535.274 21007190.956 10 0 60956 32400.00000 0 3971879.374 16036408.191 19447199.509 10 0 60956 33300.00000 0 3392945.707 18240590.426 17509920.531 10 0 60956 34200.00000 0 3038270.372 20229992.521 15232681.166 10 0 60956 35100.00000 0 2881123.811 21946473.853 12659468.068 10 0 60956 36000.00000 0 2884691.669 23340153.585 9840092.953 10 0 60956 36900.00000 0 3003842.247 24371398.245 6829238.625 10 0 60956 37800.00000 0 3187257.199 25012401.111 3685402.819 10 0 60956 38700.00000 0 3379835.670 25248285.070 469759.879 10 0 60956 39600.00000 0 3525269.578 25077680.438 -2755037.322 10 0 60956 40500.00000 0 3568679.680 24512751.341 -5926091.024 10 0 60956 41400.00000 0 3459198.725 23578667.920 -8981502.296 10 0 60956 42300.00000 0 3152389.694 22312545.467 -11861598.645 10 0 60956 43200.00000 0 2612393.837 20761894.912 -14510119.500 10 0 60956 44100.00000 0 1813714.694 18982650.252 -16875334.336 10 0 60956 45000.00000 0 742559.960 17036857.071 -18911069.636 10 0 60956 45900.00000 0 -602317.754 14990120.895 -20577623.096 10 0 60956 46800.00000 0 -2209318.390 12908924.393 -21842546.133 10 0 60956 47700.00000 0 -4054243.899 10857927.816 -22681278.792 10 0 60956 48600.00000 0 -6101089.543 8897367.376 -23077624.683 10 0 60956 49500.00000 0 -8303343.609 7080661.463 -23024057.108 10 0 60956 50400.00000 0 -10605740.351 5452325.227 -22521851.328 10 0 60956 51300.00000 0 -12946391.806 4046280.174 -21581041.555 10 0 60956 52200.00000 0 -15259208.341 2884628.182 -20220204.958 10 0 60956 53100.00000 0 -17476505.803 1976939.123 -18466078.397 10 0 60956 54000.00000 0 -19531689.773 1320079.230 -16353016.853 10 0 60956 54900.00000 0 -21361904.621 898584.338 -13922305.557 10 0 60956 55800.00000 0 -22910537.005 685559.157 -11221340.506 10 0 60956 56700.00000 0 -24129470.088 644061.705 -8302694.421 10 0 60956 57600.00000 0 -24980995.610 728911.985 -5223087.149 10 0 60956 58500.00000 0 -25439305.629 888846.563 -2042281.149 10 0 60956 59400.00000 0 -25491503.561 1068926.772 1178076.237 10 0 60956 60300.00000 0 -25138094.359 1213098.198 4375641.319 10 0 60956 61200.00000 0 -24392935.304 1266793.419 7488570.767 10 0 60956 62100.00000 0 -23282651.173 1179468.730 10456704.078 10 0 60956 63000.00000 0 -21845539.458 906968.825 13222710.080 10 0 60956 63900.00000 0 -20130011.958 413620.962 15733176.637 10 0 60956 64800.00000 0 -18192637.771 -326028.440 17939624.185 10 0 60956 65700.00000 0 -16095868.524 -1325906.972 19799425.217 10 0 60956 66600.00000 0 -13905539.298 -2587593.708 21276613.654 10 0 60956 67500.00000 0 -11688247.472 -4100015.822 22342570.009 10 0 60956 68400.00000 0 -9508716.407 -5839678.171 22976570.301 10 0 60956 69300.00000 0 -7427251.463 -7771418.089 23166188.832 10 0 60956 70200.00000 0 -5497392.103 -9849656.379 22907547.220 10 0 60956 71100.00000 0 -3763856.090 -12020095.294 22205404.424 10 0 60956 72000.00000 0 -2260860.236 -14221795.872 21073084.928 10 0 60956 72900.00000 0 -1010887.153 -16389551.101 19532244.889 10 0 60956 73800.00000 0 -23949.596 -18456458.717 17612478.689 10 0 60956 74700.00000 0 702616.176 -20356588.343 15350771.275 10 0 60956 75600.00000 0 1183818.266 -22027632.864 12790804.544 10 0 60956 76500.00000 0 1446150.898 -23413433.551 9982129.081 10 0 60956 77400.00000 0 1526244.904 -24466272.610 6979215.591 10 0 60956 78300.00000 0 1469082.869 -25148835.654 3840403.232 10 0 60956 79200.00000 0 1325853.836 -25435759.726 626764.737 10 0 60956 80100.00000 0 1151538.501 -25314699.401 -2599089.368 10 0 60956 81000.00000 0 1002328.052 -24786863.737 -5774243.335 10 0 60956 81900.00000 0 932987.665 -23866999.292 -8836720.086 10 0 60956 82800.00000 0 994278.634 -22582818.251 -11726710.282 10 0 60956 83700.00000 0 1230551.008 -20973894.778 -14387760.489 10 0 60956 84600.00000 0 1677611.509 -19090075.812 -16767895.148 10 0 60956 85500.00000 0 2360959.693 -16989473.669 -18820648.470 10 0 60957 0.00000 0 3294469.184 -14736126.161 -20505984.413 10 0 60957 900.00000 0 4479572.121 -12397422.718 -21791086.471 10 0 60957 1800.00000 0 5904981.098 -10041409.188 -22650999.104 10 0 60957 2700.00000 0 7546962.573 -7734081.728 -23069111.235 10 0 60957 3600.00000 0 9370148.996 -5536787.120 -23037470.507 10 0 60957 4500.00000 0 11328855.434 -3503837.625 -22556924.007 10 0 60957 5400.00000 0 13368844.461 -1680440.022 -21637083.729 10 0 60957 6300.00000 0 15429464.264 -101024.344 -20296118.880 10 0 60957 7200.00000 0 17446069.312 1211959.613 -18560380.552 10 0 60957 8100.00000 0 19352621.362 2248730.188 -16463867.631 10 0 60957 9000.00000 0 21084361.428 3012320.368 -14047545.743 10 0 60957 9900.00000 0 22580440.765 3518180.024 -11358533.848 10 0 60957 10800.00000 0 23786401.166 3793253.902 -8449175.396 10 0 60957 11700.00000 0 24656401.685 3874577.158 -5376012.987 10 0 60957 12600.00000 0 25155099.877 3807450.162 -2198687.078 10 0 60957 13500.00000 0 25259110.474 3643271.449 1021219.599 10 0 60957 14400.00000 0 24957982.247 3437121.437 4221369.543 10 0 60957 15300.00000 0 24254654.010 3245199.327 7339867.277 10 0 60957 16200.00000 0 23165372.244 3122221.142 10316443.017 10 0 60957 17100.00000 0 21719075.049 3118887.881 13093601.423 10 0 60957 18000.00000 0 19956268.801 3279529.408 15617714.590 10 0 60957 18900.00000 0 17927444.463 3640022.064 17840039.760 10 0 60957 19800.00000 0 15691098.932 4226066.471 19717643.848 10 0 60957 20700.00000 0 13311442.568 5051897.143 21214218.570 10 0 60957 21600.00000 0 10855886.488 6119477.840 22300772.000 10 0 60957 22500.00000 0 8392411.858 7418216.921 22956184.392 10 0 60957 23400.00000 0 5986928.194 8925215.854 23167618.283 10 0 60957 24300.00000 0 3700728.051 10606042.486 22930775.165 10 0 60957 25200.00000 0 1588141.819 12415999.374 22249993.330 10 0 60957 26100.00000 0 -305511.429 14301837.125 21138183.978 10 0 60957 27000.00000 0 -1945592.781 16203844.297 19616605.224 10 0 60957 27900.00000 0 -3309362.823 18058229.437 17714476.353 10 0 60957 28800.00000 0 -4386700.260 19799698.086 15468437.519 10 0 60957 29700.00000 0 -5180288.994 21364118.647 12921863.040 10 0 60957 30600.00000 0 -5705264.684 22691166.291 10124039.391 10 0 60957 31500.00000 0 -5988334.409 23726833.842 7129222.115 10 0 60957 32400.00000 0 -6066405.400 24425703.218 3995588.711 10 0 60957 33300.00000 0 -5984780.002 24752880.091 784107.264 10 0 60957 34200.00000 0 -5794992.975 24685508.021 -2442656.985 10 0 60957 35100.00000 0 -5552383.213 24213795.695 -5621773.062 10 0 60957 36000.00000 0 -5313503.940 23341511.450 -8691188.286 10 0 60957 36900.00000 0 -5133483.043 22085922.085 -11590958.723 10 0 60957 37800.00000 0 -5063447.760 20477176.891 -14264439.991 10 0 60957 38700.00000 0 -5148125.458 18557161.968 -16659413.075 10 0 60957 39600.00000 0 -5423724.750 16377872.891 -18729121.157 10 0 60957 40500.00000 0 -5916189.019 13999374.671 -20433195.638 10 0 60957 41400.00000 0 -6639898.105 11487435.719 -21738452.124 10 0 60957 42300.00000 0 -7596874.386 8910936.448 -22619540.191 10 0 60957 43200.00000 0 -8776527.410 6339162.444 -23059434.188 10 0 60957 44100.00000 0 -10155947.940 3839096.638 -23049755.935 10 0 60957 45000.00000 0 -11700738.499 1472824.449 -22590923.876 10 0 60957 45900.00000 0 -13366344.593 -704839.644 -21692126.981 10 0 60957 46800.00000 0 -15099829.506 -2648405.666 -20371125.306 10 0 60957 47700.00000 0 -16842016.890 -4323357.484 -18653882.632 10 0 60957 48600.00000 0 -18529910.130 -5707331.230 -16574039.838 10 0 60957 49500.00000 0 -20099286.145 -6790776.306 -14172240.743 10 0 60957 50400.00000 0 -21487354.331 -7577074.497 -11495324.818 10 0 60957 51300.00000 0 -22635369.178 -8082115.556 -8595403.627 10 0 60957 52200.00000 0 -23491087.446 -8333350.403 -5528839.799 10 0 60957 53100.00000 0 -24010967.828 -8368364.639 -2355149.003 10 0 60957 54000.00000 0 -24162022.132 -8233034.895 864153.446 10 0 60957 54900.00000 0 -23923241.961 -7979347.367 4066739.038 10 0 60957 55800.00000 0 -23286542.678 -7662971.521 7190662.925 10 0 60957 56700.00000 0 -22257186.636 -7340691.467 10175548.741 10 0 60957 57600.00000 0 -20853669.143 -7067802.847 12963739.568 10 0 60957 58500.00000 0 -19107072.642 -6895584.006 15501394.123 10 0 60957 59400.00000 0 -17059916.212 -6868946.636 17739508.596 10 0 60957 60300.00000 0 -14764547.823 -7024363.416 19634846.119 10 0 60957 61200.00000 0 -12281145.122 -7388158.610 21150757.602 10 0 60957 62100.00000 0 -9675406.134 -7975232.629 22257879.626 10 0 60957 63000.00000 0 -7016023.612 -8788273.953 22934697.159 10 0 60957 63900.00000 0 -4372045.414 -9817492.008 23167960.989 10 0 60957 64800.00000 0 -1810227.940 -11040883.548 22952952.054 10 0 60957 65700.00000 0 607509.898 -12425023.434 22293587.153 10 0 60957 66600.00000 0 2826428.382 -13926349.321 21202363.010 10 0 60957 67500.00000 0 4801008.459 -15492889.347 19700138.183 10 0 60957 68400.00000 0 6496608.802 -17066363.447 17815755.043 10 0 60957 69300.00000 0 7890669.404 -18584572.874 15585506.865 10 0 60957 70200.00000 0 8973410.978 -19983979.799 13052458.023 10 0 60957 71100.00000 0 9747999.892 -21202370.040 10265628.286 10 0 60957 72000.00000 0 10230170.528 -22181487.355 7279055.235 10 0 60957 72900.00000 0 10447319.738 -22869527.916 4150751.774 10 0 60957 73800.00000 0 10437110.639 -23223388.460 941578.332 10 0 60957 74700.00000 0 10245644.158 -23210571.171 -2285948.126 10 0 60957 75600.00000 0 9925275.804 -22810662.375 -5468884.313 10 0 60957 76500.00000 0 9532170.885 -22016319.909 -8545104.702 10 0 60957 77400.00000 0 9123703.196 -20833724.929 -11454533.334 10 0 60957 78300.00000 0 8755809.456 -19282476.937 -14140337.234 10 0 60957 79200.00000 0 8480413.942 -17394934.945 -16550056.010 10 0 60957 80100.00000 0 8343034.915 -15215031.715 -18636643.597 10 0 60957 81000.00000 0 8380676.525 -12796610.882 -20359400.145 10 0 60957 81900.00000 0 8620097.330 -10201357.368 -21684774.731 10 0 60957 82800.00000 0 9076530.071 -7496408.894 -22587022.528 10 0 60957 83700.00000 0 9752907.533 -4751749.904 -23048703.540 10 0 60957 84600.00000 0 10639627.293 -2037498.033 -23061013.583 10 0 60957 85500.00000 0 11714864.758 578802.540 -22623941.904 99